Location: Altamira
(10.5079°N, 66.8544°W)
Time: 09:01:40
(UTC+00:00)

SWIFT - Pass Details

Date: 08 December 2021
Orbit: 542 x 557 km, 20.6° (Epoch: 24 January)

Event Time Altitude Azimuth Distance (km) Brightness Sun altitude
Rises 23:17:38 0° 286° (WNW) 2,696 6.7 -17.3°
Reaches altitude 10° 23:19:54 10° 283° (WNW) 1,806 5.8 -17.8°
Maximum altitude 23:24:05 69° 200° (SSW) 585 2.5 -18.8°
Enters shadow 23:25:58 31° 125° (SE) 964 3.2 -19.2°
